Location: Fredericksburg
(30.2750°N, 98.8720°W)
Time: 02:48:54
(UTC-05:00)

ISS - All Passes

Search period start: 19 September 2014 00:00
Search period end: 29 September 2014 00:00
Orbit: 414 x 417 km, 51.6° (Epoch: 19 September)

Date Brightness Start Highest point End Pass type
(mag) Time Alt. Az. Time Alt. Az. Time Alt. Az.
19 Sep - 02:57:47 10° SW 03:01:06 83° SE 03:04:25 10° NE night (unlit)
19 Sep - 11:07:34 10° NW 11:10:53 75° NE 11:14:11 10° SE daylight
20 Sep - 02:09:16 10° SSW 02:12:21 37° SE 02:15:27 10° ENE night (unlit)
20 Sep - 03:47:01 10° WNW 03:49:10 16° NW 03:51:18 10° N night (unlit)
20 Sep - 10:18:56 10° NNW 10:22:02 35° NE 10:25:07 10° ESE daylight
20 Sep - 11:56:45 10° W 11:58:28 13° SW 12:00:10 10° SSW daylight
21 Sep - 01:21:17 10° S 01:23:38 18° SE 01:26:00 10° E night (unlit)
21 Sep - 02:57:17 10° W 03:00:11 27° NW 03:03:04 10° NNE night (unlit)
21 Sep - 09:30:33 10° NNW 09:33:05 20° NE 09:35:36 10° E daylight
21 Sep - 11:06:54 10° WNW 11:09:45 27° SW 11:12:36 10° S daylight
22 Sep - 02:07:59 10° WSW 02:11:14 53° NW 02:14:30 10° NE night (unlit)
22 Sep - 08:42:37 10° N 08:44:00 12° NE 08:45:24 10° ENE daylight
22 Sep - 10:17:42 10° NW 10:20:58 58° SW 10:24:13 10° SSE daylight
23 Sep - 01:19:02 10° SW 01:22:20 70° SE 01:25:39 10° NE night (unlit)
23 Sep - 02:58:28 10° NW 02:59:21 11° NNW 03:00:14 10° NNW night (unlit)
23 Sep - 09:28:46 10° NW 09:32:04 64° NE 09:35:20 10° SE daylight
24 Sep - 00:30:29 10° SSW 00:33:28 31° SE 00:36:28 10° ENE night (unlit)
24 Sep - 02:07:52 10° W 02:10:12 18° NW 02:12:33 10° N night (unlit)
24 Sep - 08:40:03 10° NNW 08:43:04 31° NE 08:46:03 10° ESE daylight
24 Sep - 10:17:28 10° W 10:19:32 16° SW 10:21:35 10° SSW daylight
24 Sep - 23:42:32 10° SSE 23:44:37 16° SE 23:46:43 10° E night (unlit)
25 Sep - 01:18:06 10° WSW 01:21:06 31° NW 01:24:06 10° NNE night (unlit)
25 Sep - 07:51:35 10° N 07:53:56 18° NE 07:56:17 10° E daylight
25 Sep - 09:27:41 10° WNW 09:30:40 31° SW 09:33:38 10° SSE daylight
26 Sep - 00:28:45 10° SW 00:32:02 63° NW 00:35:19 10° NE night (unlit)
26 Sep - 07:03:48 10° NNE 07:04:42 11° NNE 07:05:36 10° NE visible
26 Sep - 08:38:25 10° NW 08:41:43 70° SW 08:45:00 10° SE daylight
26 Sep - 23:39:44 10° SSW 23:43:00 58° SE 23:46:16 10° NE night (unlit)
27 Sep - 01:18:34 10° WNW 01:19:57 12° NW 01:21:20 10° N night (unlit)
27 Sep - 07:49:24 10° NW 07:52:40 53° NE 07:55:54 10° ESE daylight
27 Sep - 22:51:09 10° S 22:54:00 27° SE 22:56:51 10° ENE night (unlit)
28 Sep - 00:28:08 10° W 00:30:40 20° NW 00:33:12 10° NNE night (unlit)
28 Sep - 07:00:37 10° NNW 07:03:30 27° NE 07:06:23 10° E visible
28 Sep - 08:37:39 10° W 08:40:01 18° SW 08:42:22 10° S daylight
28 Sep - 22:03:20 10° SSE 22:05:01 13° SE 22:06:43 10° E night (unlit)
28 Sep - 23:38:21 10° WSW 23:41:26 36° NW 23:44:32 10° NNE night (unlit)
